CAPE
0 0 0 nan nan nan 0 nan nan nan nan nan nan nan 1 1 nan nan nan nan nan nan nan nan nan nan nan 7 14 14 19 28 33 33 35 31 32 32 31 31 31 31 29 29 29 31 30 28 28 26 24 24 25 25 27 29 29 31 32 35 35 38 38 41 41 41 40 37 37 37 32 31 26 26 24 21 19 19 20 21 21 21 22 22 22 23
0 0 0 nan nan nan 0 nan nan nan nan nan 0 0 1 0 nan nan nan nan nan nan nan nan nan nan nan 0 13 13 18 26 27 27 27 27 26 26 25 25 25 26 25 25 25 25 21 16 16 16 16 16 18 18 20 24 24 27 30 31 31 34 33 34 34 32 33 32 30 30 29 27 25 25 23 22 22 22 23 23 23 25 23 26 26 27
0 0 0 nan nan nan 0 nan nan nan nan nan 0 0 nan 0 0 0 nan 3 3 nan nan nan nan nan nan nan 12 12 15 22 23 23 20 22 20 20 22 22 22 19 20 19 19 15 12 10 10 10 10 13 16 16 19 21 21 25 27 28 28 28 30 28 28 30 28 27 27 27 27 25 25 25 26 27 30 30 31 31 31 32 31 31 31 34
nan 0 0 nan nan nan 0 0 nan nan nan nan nan nan nan nan 0 0 0 nan nan nan nan nan nan nan nan nan 6 6 14 16 18 18 17 17 18 18 17 15 15 16 15 10 10 8 5 5 5 6 7 12 15 15 16 19 19 22 24 25 25 26 26 27 27 27 26 25 22 22 22 22 24 24 28 33 38 38 40 39 39 37 38 37 37 40
nan 0 0 0 0 0 0 nan nan nan 0 nan nan nan nan nan 0 0 0 nan nan nan nan nan nan nan nan nan 1 1 10 13 14 14 14 15 15 15 14 13 13 12 7 5 5 3 3 4 4 5 6 8 14 14 16 17 17 22 24 24 24 25 27 23 23 22 18 17 15 15 16 18 20 20 26 31 34 34 35 37 37 39 37 38 38 43
0 0 1 0 0 1 2 nan 1 1 1 nan nan nan nan nan 0 0 nan nan nan nan nan nan nan nan nan nan nan nan 7 9 9 9 10 9 10 10 10 8 8 5 3 2 2 2 2 2 2 3 6 11 16 16 17 20 20 23 22 21 21 20 20 18 18 16 14 14 15 15 16 17 18 18 21 24 27 27 29 31 31 35 35 36 36 37
1 1 0 0 0 2 3 3 3 3 0 1 0 0 nan nan nan nan nan 0 0 nan nan nan nan nan nan nan nan nan nan nan 1 1 2 1 2 2 1 1 1 0 0 0 0 0 0 1 1 5 8 14 16 16 20 21 21 20 19 17 17 16 14 12 12 12 12 12 13 13 14 16 17 17 17 20 21 21 25 26 26 28 32 32 32 33
0 0 0 nan nan 0 1 1 0 0 nan nan nan nan nan nan nan nan nan nan nan nan nan nan nan nan nan nan nan nan nan nan nan nan nan nan nan nan nan nan nan nan nan nan nan nan nan 0 0 2 4 5 7 7 9 10 10 10 9 9 9 8 8 7 7 7 7 7 8 8 9 10 12 12 13 13 15 15 17 19 19 24 28 29 29 31
nan nan 0 nan nan nan nan nan nan nan nan nan nan nan nan nan nan nan nan nan nan nan nan nan nan nan nan nan nan nan nan nan nan nan nan nan nan nan nan nan nan nan nan nan nan nan nan nan nan 0 0 1 3 3 4 3 3 3 4 5 5 5 4 4 4 4 5 5 6 6 8 9 9 9 12 12 13 13 14 17 17 21 26 30 30 32
nan nan nan nan nan nan nan 0 nan nan nan nan nan nan nan nan nan nan nan nan nan nan nan nan nan nan nan nan nan nan nan nan nan nan nan nan nan nan nan nan nan nan nan nan nan nan nan nan nan nan 0 1 2 2 2 2 2 1 1 1 1 2 2 2 2 2 3 3 5 5 5 8 9 9 11 13 14 14 14 15 15 18 22 28 28 31
nan nan nan nan nan nan nan nan nan nan nan nan nan nan nan nan nan nan nan nan nan nan nan nan nan nan nan nan nan nan nan nan nan nan nan nan nan nan nan nan nan nan nan nan nan nan nan nan nan nan 1 1 1 1 nan nan nan nan nan nan nan nan nan nan nan 0 1 3 5 5 8 9 10 10 14 15 14 14 14 14 14 16 21 25 25 29
nan nan nan nan nan nan nan nan nan nan nan nan nan nan nan nan nan nan nan nan nan nan nan nan nan nan nan nan nan nan nan nan nan nan nan nan nan nan nan nan nan nan nan nan nan nan nan nan nan nan nan nan nan nan nan nan nan nan nan nan nan nan nan nan nan nan 1 2 6 6 8 10 14 14 17 16 16 16 14 16 16 18 20 24 24 28
nan nan nan nan nan nan nan nan nan nan nan nan nan nan nan nan nan nan nan nan nan nan nan nan nan nan nan nan nan nan nan nan nan nan nan nan nan nan nan nan nan nan nan nan nan nan nan nan nan nan nan nan nan nan nan nan nan nan nan nan nan nan nan nan nan 0 3 5 8 8 9 10 12 12 15 15 16 16 17 19 19 20 22 26 26 27
nan nan nan nan nan nan nan nan nan nan nan nan nan nan nan nan nan nan nan nan nan nan nan nan nan nan nan nan nan nan nan nan nan nan nan nan nan nan nan nan nan nan nan nan nan nan nan nan nan nan nan nan nan nan nan nan nan nan nan nan nan nan nan 0 0 2 4 9 9 9 8 10 10 10 12 13 15 15 18 18 18 20 23 24 24 25
nan nan nan nan nan nan nan nan nan nan nan nan nan nan nan nan nan nan nan nan nan nan nan nan nan nan nan nan nan nan nan nan nan nan nan nan nan nan nan nan nan nan nan nan nan nan nan nan nan nan nan nan nan nan nan nan nan nan nan nan nan 0 1 3 3 4 6 9 8 8 8 9 10 10 11 12 13 13 14 15 15 16 18 19 19 20
nan nan nan nan nan nan nan nan nan nan nan nan nan nan nan nan nan nan nan nan nan nan nan nan nan nan nan nan nan nan nan nan nan nan nan nan nan nan nan nan nan nan nan nan nan nan nan nan nan nan nan nan nan nan nan nan nan 0 0 1 1 2 3 4 4 6 6 8 8 8 8 8 9 9 10 12 13 13 14 14 14 14 15 16 16 18
nan nan nan nan nan nan nan nan nan nan nan nan nan nan nan nan nan nan nan nan nan nan nan nan nan nan nan nan nan nan nan nan nan nan nan nan nan nan nan nan nan nan nan nan nan nan nan nan nan nan nan nan nan nan nan nan nan 0 1 2 2 3 3 5 5 5 5 6 7 7 9 8 10 10 11 13 13 13 13 12 12 12 14 16 16 19
nan nan nan nan nan nan nan nan nan nan nan nan nan nan nan nan nan nan nan nan nan nan nan nan nan nan nan nan nan nan nan nan nan nan nan nan nan nan nan nan nan nan nan nan nan nan nan nan nan nan nan nan nan nan nan nan nan 0 1 1 1 2 3 3 3 4 5 5 5 5 7 8 10 10 13 13 13 13 12 12 12 13 15 17 17 18
nan nan nan nan nan nan nan nan nan nan nan nan nan nan nan nan nan nan nan nan nan nan nan nan nan nan nan nan nan nan nan nan nan nan nan nan nan nan nan nan nan nan nan nan nan nan nan nan nan nan nan nan nan nan nan nan nan nan 1 1 1 1 3 2 2 3 4 4 5 5 6 8 10 10 12 12 13 13 13 14 14 16 16 17 17 19
nan nan nan nan nan nan nan nan nan nan nan nan nan nan nan nan nan nan nan nan nan nan nan nan nan nan nan nan nan nan nan nan nan nan nan nan nan nan nan nan nan nan nan nan nan nan nan nan nan nan nan nan nan nan nan nan nan nan 0 1 1 1 2 2 2 2 3 2 4 4 6 8 11 11 10 12 12 12 14 15 15 16 15 16 16 16
nan nan nan nan nan nan nan nan nan nan nan nan nan nan nan nan nan nan nan nan nan nan nan nan nan nan nan nan nan nan nan nan nan nan nan nan nan nan nan nan nan nan nan nan nan nan nan nan nan nan nan nan nan nan nan nan nan nan 0 0 0 1 0 1 1 1 1 2 3 3 6 8 10 10 12 12 13 13 13 13 13 13 14 15 15 15
nan nan nan nan nan nan nan nan nan nan nan nan nan nan nan nan nan nan nan nan nan nan nan nan nan nan nan nan nan nan nan nan nan nan nan nan nan nan nan nan nan nan nan nan nan nan nan nan nan nan nan nan nan nan nan nan nan nan 0 0 0 0 0 0 0 0 1 1 3 3 6 9 10 10 11 11 10 10 10 11 11 12 12 13 13 14
nan nan nan nan nan nan nan nan nan nan nan nan nan nan nan nan nan nan nan nan nan nan nan nan nan nan nan nan nan nan nan nan nan nan nan nan nan nan nan nan nan nan nan nan nan nan nan nan nan nan nan nan nan nan nan nan nan nan nan nan nan 0 0 0 0 0 1 2 5 5 8 10 11 11 12 11 10 10 9 9 9 10 10 12 12 13
nan nan nan nan nan nan nan nan nan nan nan nan nan nan nan nan nan nan nan nan nan nan nan nan nan nan nan nan nan nan nan nan nan nan nan nan nan nan nan nan nan nan nan nan nan nan nan nan nan nan nan nan nan nan nan nan nan nan nan 0 0 0 0 0 0 1 2 5 7 7 9 9 11 11 9 9 7 7 8 9 9 10 10 10 10 11
nan nan nan nan nan nan nan nan nan nan nan nan nan nan nan nan nan nan nan nan nan nan nan nan nan nan nan nan nan nan nan nan nan nan nan nan nan nan nan nan nan nan nan nan nan nan nan nan nan nan nan nan nan nan 0 0 0 0 0 0 0 0 0 1 1 3 4 6 7 7 8 8 8 8 8 7 7 7 8 8 8 9 9 10 10 11
nan nan nan nan nan nan nan 12 19 19 nan nan nan nan nan nan nan nan nan nan nan nan nan nan nan nan nan nan nan nan nan nan nan nan nan nan nan nan nan nan nan nan nan nan nan nan nan nan nan nan nan nan nan nan nan 1 1 2 1 0 0 1 2 3 3 4 5 5 5 5 5 6 6 6 5 5 7 7 7 8 8 9 9 10 10 10
6 1 6 15 15 19 17 11 10 10 16 1 nan nan nan nan nan nan nan nan nan nan nan nan nan nan nan nan nan nan nan nan nan nan nan nan nan nan nan nan nan nan nan nan nan nan nan nan nan nan nan nan nan nan nan 0 0 2 2 1 1 2 3 3 3 2 2 2 3 3 2 3 4 4 5 5 8 8 7 8 8 9 9 9 9 9
5 7 7 7 7 5 4 3 2 2 5 9 8 8 nan nan nan nan nan nan nan nan nan nan nan nan nan nan nan nan nan nan nan nan nan nan nan nan nan nan nan nan nan nan nan nan nan nan nan nan nan nan nan nan nan nan nan nan nan nan nan 0 0 0 0 0 0 0 0 0 1 2 3 3 4 5 7 7 7 8 8 9 10 7 7 nan
nan nan nan nan nan nan nan nan nan nan nan 0 4 4 nan nan nan nan nan nan nan nan nan nan nan nan nan nan nan nan nan nan nan nan nan nan nan nan nan nan nan nan nan nan nan nan nan nan nan nan nan nan nan nan nan nan nan nan nan nan nan nan nan nan nan nan nan nan 0 0 0 1 3 3 4 5 7 7 8 9 9 9 8 4 4 nan
nan nan nan nan nan nan nan nan nan nan nan nan nan nan nan nan nan nan nan nan nan nan nan nan nan nan nan nan nan nan nan nan nan nan nan nan nan nan nan nan nan nan nan nan nan nan nan nan nan nan nan nan nan nan nan nan nan nan nan nan nan nan nan nan nan nan nan nan nan nan 0 1 3 3 3 5 7 7 8 9 9 6 2 0 0 nan
nan nan nan nan nan nan nan nan nan nan nan nan nan nan nan nan nan nan nan nan nan nan nan nan nan nan nan nan nan nan nan nan nan nan nan nan nan nan nan nan nan nan nan nan nan nan nan nan nan nan nan nan nan nan nan nan nan nan nan nan nan nan nan nan nan nan nan nan nan nan 0 1 2 2 3 4 6 6 8 10 10 8 2 0 0 nan
nan nan nan nan nan nan nan nan nan nan nan nan nan nan nan nan nan nan nan nan nan nan nan nan nan nan nan nan nan nan nan nan nan nan nan nan nan nan nan nan nan nan nan nan nan nan nan nan nan nan nan nan nan nan nan nan nan nan nan nan nan nan nan nan nan nan nan nan nan nan nan nan nan nan 0 2 4 4 6 7 7 8 3 nan nan nan
nan nan nan nan nan nan nan nan nan nan nan nan nan nan nan nan nan nan nan nan nan nan nan nan nan nan nan nan nan nan nan nan nan nan nan nan nan nan nan nan nan nan nan nan nan nan nan nan nan nan nan nan nan nan nan nan nan nan nan nan nan nan nan nan nan nan nan nan nan nan nan nan nan nan nan 0 1 1 4 5 5 8 8 0 0 1
nan nan nan nan nan nan nan nan nan nan nan nan nan nan nan nan nan nan nan nan nan nan nan nan nan nan nan nan nan nan nan nan nan nan nan nan nan nan nan nan nan nan nan nan nan nan nan nan nan nan nan nan nan nan nan nan nan nan nan nan nan nan nan nan nan nan nan nan nan nan nan nan nan nan nan nan nan nan 1 3 3 7 13 9 9 5
nan nan nan nan nan nan nan nan nan nan nan nan nan nan nan nan nan nan nan nan nan nan nan nan nan nan nan nan nan nan nan nan nan nan nan nan nan nan nan nan nan nan nan nan nan nan nan nan nan 1 nan nan nan nan nan nan nan nan nan nan nan nan nan nan nan nan nan nan nan nan nan nan nan nan nan nan nan nan 1 6 6 10 15 21 21 16
nan nan nan nan nan nan nan nan nan nan nan nan nan nan nan nan nan nan nan nan nan nan nan nan nan nan nan nan nan nan nan nan nan nan nan nan nan nan nan nan nan nan nan nan nan nan nan nan nan 1 1 nan nan nan nan nan nan nan nan nan nan nan nan nan nan nan nan nan nan nan nan nan nan nan nan nan nan nan 5 11 11 15 16 20 20 21
nan nan nan nan nan nan nan nan nan nan nan nan nan nan nan nan nan nan nan nan nan nan nan nan nan nan nan nan nan nan nan nan nan nan nan nan nan nan nan nan nan nan nan nan nan nan nan nan nan nan nan nan nan nan nan nan nan nan nan nan nan nan nan nan nan nan nan nan nan nan nan nan nan nan nan nan nan nan 6 13 13 12 15 17 17 17
nan nan nan nan nan nan nan nan nan nan nan nan nan nan nan nan nan nan nan nan nan nan nan nan nan nan nan nan nan nan nan nan nan nan nan nan nan nan nan nan nan nan nan nan nan nan nan nan nan nan nan nan nan nan nan nan nan nan nan nan nan nan nan nan nan nan nan nan nan nan nan nan nan nan nan nan nan nan nan nan nan nan 3 3 3 9
nan nan nan nan nan nan nan nan nan nan nan nan nan nan nan nan nan nan nan nan nan nan nan nan nan nan nan nan nan nan nan nan nan nan nan nan nan nan nan nan nan nan nan nan nan nan nan nan nan nan nan nan nan nan nan nan nan nan nan nan nan nan nan nan nan nan nan nan nan nan nan nan nan nan nan nan nan nan nan nan nan nan nan nan nan nan
nan nan nan nan nan nan nan nan nan nan nan nan nan nan nan nan nan nan nan nan nan nan nan nan nan nan nan nan nan nan nan nan nan nan nan nan nan nan nan nan nan nan nan nan nan nan nan nan nan 0 0 nan nan nan nan nan nan nan 0 nan nan nan nan nan nan nan nan nan nan nan nan nan nan nan nan nan nan nan nan nan nan nan nan nan nan nan
nan nan nan nan nan nan nan nan nan nan nan nan nan nan nan nan nan nan nan nan nan nan nan nan nan nan nan nan nan nan nan nan nan nan nan nan nan nan nan nan nan nan nan nan nan nan nan nan nan nan nan nan nan nan nan nan nan 1 2 nan nan nan nan 1 1 nan nan nan nan nan nan nan nan nan nan nan nan nan nan nan nan nan nan nan nan nan
nan nan nan nan nan nan nan nan nan nan nan nan nan nan nan nan nan nan nan nan nan nan nan nan nan nan nan nan nan nan nan nan nan nan nan nan nan nan nan nan nan nan nan nan nan nan 0 0 0 0 nan nan nan nan nan nan nan 0 0 nan nan nan nan nan nan nan nan nan nan nan nan nan nan nan nan nan nan nan nan nan nan nan nan nan nan nan
nan nan nan nan nan nan nan nan nan nan nan nan nan nan nan nan nan nan nan nan nan nan nan nan nan nan nan nan nan nan nan nan nan nan nan nan nan nan nan nan nan nan nan nan nan nan nan 3 3 1 0 0 nan nan nan nan nan nan nan 0 0 nan nan nan nan nan nan nan nan nan nan nan nan nan nan nan nan nan nan nan nan nan nan nan nan nan
nan nan nan nan nan nan nan nan nan nan nan nan nan nan 0 nan nan nan nan nan nan nan nan nan nan nan nan nan nan nan nan nan nan nan nan nan nan nan nan nan nan nan nan nan nan nan nan 0 0 0 0 0 nan nan nan nan nan nan nan nan nan nan nan nan nan nan nan nan nan nan nan nan nan nan nan nan nan nan nan nan nan nan nan nan nan nan
nan nan nan nan nan nan nan nan nan nan nan nan 0 0 0 nan nan nan nan nan nan nan nan nan nan nan nan nan nan nan nan nan nan nan nan nan 8 8 nan nan nan nan nan nan nan nan nan nan nan nan nan nan nan nan nan nan nan nan nan 0 0 nan nan nan nan nan nan nan nan nan nan nan nan nan nan nan nan nan nan nan nan nan nan nan nan nan
nan nan nan nan nan nan nan nan nan nan nan 0 1 1 0 nan nan nan nan nan nan nan nan nan nan nan 0 nan nan nan nan nan nan nan nan nan nan nan nan nan nan nan nan nan nan nan nan nan nan nan nan nan nan nan nan nan nan nan nan 0 0 nan nan nan nan nan nan nan nan nan nan nan nan nan nan nan nan nan nan nan nan nan nan nan nan nan
nan nan nan nan nan nan nan nan nan nan nan nan 0 0 0 nan nan nan nan nan nan nan nan 0 0 0 1 nan nan nan nan nan nan nan nan nan nan nan nan nan nan nan nan nan nan nan nan nan nan nan nan nan nan nan nan nan nan nan nan nan nan nan nan nan nan nan nan nan nan nan nan nan nan nan nan nan nan nan nan nan nan nan nan nan nan nan
nan nan nan nan nan nan nan nan nan nan nan nan nan nan 0 nan nan nan nan nan nan 1 3 nan nan nan nan nan nan nan nan nan nan nan nan nan nan nan nan nan nan nan nan nan nan nan nan nan nan nan nan nan nan nan nan nan nan nan nan nan nan nan nan nan nan nan nan nan nan nan nan nan nan nan nan nan nan nan nan nan nan nan nan nan nan nan
nan nan nan 1 1 0 0 nan nan nan nan nan nan nan nan 2 8 8 1 nan nan nan nan nan nan nan nan nan nan nan nan nan nan nan nan nan nan nan nan nan nan nan nan nan nan nan nan nan nan nan nan nan nan nan nan nan nan nan nan nan nan nan nan nan nan nan nan nan nan nan nan nan nan nan nan nan nan nan nan nan nan nan nan nan nan nan
nan nan 0 nan nan nan nan nan nan nan 0 0 1 1 nan nan nan nan nan nan nan nan nan nan nan nan nan nan nan nan nan nan nan nan nan nan nan nan nan nan nan nan nan nan nan nan nan nan nan nan nan nan nan nan nan nan nan nan nan nan nan nan nan nan nan nan nan nan nan nan nan nan nan nan nan nan nan nan nan nan nan nan nan nan nan nan
nan nan nan nan nan nan nan 0 0 0 1 1 2 2 0 nan nan nan nan nan nan nan nan nan nan nan nan nan nan nan nan nan nan nan nan nan nan nan nan nan nan nan nan nan nan nan nan nan nan nan 1 8 nan nan nan nan nan nan nan nan nan nan nan nan nan nan nan nan nan nan nan nan nan nan nan nan nan nan nan nan nan nan nan nan nan nan
CIN
-0 -0 -0 nan nan nan -0 nan nan nan nan nan nan nan -0 -0 nan nan nan nan nan nan nan nan nan nan nan -0 -0 -0 -0 -0 -0 -0 -0 -0 -0 -0 -0 -0 -0 -0 -0 -0 -0 -0 -0 -0 -0 -0 -0 -0 -0 -0 -0 -0 -0 -0 -0 -0 -0 -0 -0 -0 -0 -0 -0 -0 -0 -0 -0 -0 -0 -0 -0 -0 -0 -0 -0 -0 -0 -0 -0 -0 -0 -0
-0 -0 -0 nan nan nan -0 nan nan nan nan nan -0 -0 -0 -0 nan nan nan nan nan nan nan nan nan nan nan -0 -0 -0 -0 -0 -0 -0 -0 -0 -0 -0 -0 -0 -0 -0 -0 -0 -0 -0 -0 -0 -0 -0 -0 -0 -0 -0 -0 -0 -0 -0 -0 -0 -0 -0 -0 -0 -0 -0 -0 -0 -0 -0 -0 -0 -0 -0 -0 -0 -0 -0 -0 -0 -0 -0 -0 -0 -0 -0
-0 -0 -0 nan nan nan -0 nan nan nan nan nan -0 -0 nan -0 -0 -0 nan -0 -0 nan nan nan nan nan nan nan -0 -0 -0 -0 -0 -0 -0 -0 -0 -0 -0 -0 -0 -0 -0 -0 -0 -0 -0 -0 -0 -0 -0 -0 -0 -0 -0 -0 -0 -0 -0 -0 -0 -0 -0 -0 -0 -0 -0 -0 -0 -0 -0 -0 -0 -0 -0 -0 -0 -0 -0 -0 -0 -0 -0 -0 -0 -0
nan -0 -0 nan nan nan -0 -0 nan nan nan nan nan nan nan nan -0 -0 -0 nan nan nan nan nan nan nan nan nan -0 -0 -0 -0 -0 -0 -0 -0 -0 -0 -0 -0 -0 -0 -0 -0 -0 -0 -0 -0 -0 -0 -0 -0 -0 -0 -0 -0 -0 -0 -0 -0 -0 -0 -0 -0 -0 -0 -0 -0 -0 -0 -0 -0 -0 -0 -0 -0 -0 -0 -0 -0 -0 -0 -0 -0 -0 -0
nan -0 -0 -0 -0 -0 -0 nan nan nan -0 nan nan nan nan nan -0 -0 -0 nan nan nan nan nan nan nan nan nan -0 -0 -0 -0 -0 -0 -0 -0 -0 -0 -0 -0 -0 -0 -0 -0 -0 -0 -0 -0 -0 -0 -0 -0 -0 -0 -0 -0 -0 -0 -0 -0 -0 -0 -0 -0 -0 -0 -0 -0 -0 -0 -0 -0 -0 -0 -0 -0 -0 -0 -0 -0 -0 -0 -0 -0 -0 -0
-0 -0 -0 -0 -0 -0 -0 nan -0 -0 -0 nan nan nan nan nan -0 -0 nan nan nan nan nan nan nan nan nan nan nan nan -0 -0 -0 -0 -0 -0 -0 -0 -0 -0 -0 -0 -0 -0 -0 -0 -0 -0 -0 -0 -0 -0 -0 -0 -0 -0 -0 -0 -0 -0 -0 -0 -0 -0 -0 -0 -0 -0 -0 -0 -0 -0 -0 -0 -0 -0 -0 -0 -0 -0 -0 -0 -0 -0 -0 -0
-0 -0 -0 -0 -0 -0 -0 -0 -0 -0 -0 -0 -0 -0 nan nan nan nan nan -0 -0 nan nan nan nan nan nan nan nan nan nan nan -0 -0 -0 -0 -0 -0 -0 -0 -0 -0 -0 -0 -0 -0 -0 -0 -0 -0 -0 -0 -0 -0 -0 -0 -0 -0 -0 -0 -0 -0 -0 -0 -0 -0 -0 -0 -0 -0 -0 -0 -0 -0 -0 -0 -0 -0 -0 -0 -0 -0 -0 -0 -0 -0
-0 -0 -0 nan nan -0 -0 -0 -0 -0 nan nan nan nan nan nan nan nan nan nan nan nan nan nan nan nan nan nan nan nan nan nan nan nan nan nan nan nan nan nan nan nan nan nan nan nan nan -0 -0 -0 -0 -0 -0 -0 -0 -0 -0 -0 -0 -0 -0 -0 -0 -0 -0 -0 -0 -0 -0 -0 -0 -0 -0 -0 -0 -0 -0 -0 -0 -0 -0 -0 -0 -0 -0 -0
nan nan -0 nan nan nan nan nan nan nan nan nan nan nan nan nan nan nan nan nan nan nan nan nan nan nan nan nan nan nan nan nan nan nan nan nan nan nan nan nan nan nan nan nan nan nan nan nan nan -0 -0 -0 -0 -0 -0 -0 -0 -0 -0 -0 -0 -0 -0 -0 -0 -0 -0 -0 -0 -0 -0 -0 -0 -0 -0 -0 -0 -0 -0 -0 -0 -0 -0 -0 -0 -0
nan nan nan nan nan nan nan -0 nan nan nan nan nan nan nan nan nan nan nan nan nan nan nan nan nan nan nan nan nan nan nan nan nan nan nan nan nan nan nan nan nan nan nan nan nan nan nan nan nan nan -0 -0 -0 -0 -0 -0 -0 -0 -0 -0 -0 -0 -0 -0 -0 -0 -0 -0 -0 -0 -0 -0 -0 -0 -0 -0 -0 -0 -0 -0 -0 -0 -0 -0 -0 -0
nan nan nan nan nan nan nan nan nan nan nan nan nan nan nan nan nan nan nan nan nan nan nan nan nan nan nan nan nan nan nan nan nan nan nan nan nan nan nan nan nan nan nan nan nan nan nan nan nan nan -0 -0 -0 -0 nan nan nan nan nan nan nan nan nan nan nan -0 -0 -0 -0 -0 -0 -0 -0 -0 -0 -0 -0 -0 -0 -0 -0 -0 -0 -0 -0 -0
nan nan nan nan nan nan nan nan nan nan nan nan nan nan nan nan nan nan nan nan nan nan nan nan nan nan nan nan nan nan nan nan nan nan nan nan nan nan nan nan nan nan nan nan nan nan nan nan nan nan nan nan nan nan nan nan nan nan nan nan nan nan nan nan nan nan -0 -0 -0 -0 -0 -0 -0 -0 -0 -0 -0 -0 -0 -0 -0 -0 -0 -0 -0 -0
nan nan nan nan nan nan nan nan nan nan nan nan nan nan nan nan nan nan nan nan nan nan nan nan nan nan nan nan nan nan nan nan nan nan nan nan nan nan nan nan nan nan nan nan nan nan nan nan nan nan nan nan nan nan nan nan nan nan nan nan nan nan nan nan nan -0 -0 -0 -0 -0 -0 -0 -0 -0 -0 -0 -0 -0 -0 -0 -0 -0 -0 -0 -0 -0
nan nan nan nan nan nan nan nan nan nan nan nan nan nan nan nan nan nan nan nan nan nan nan nan nan nan nan nan nan nan nan nan nan nan nan nan nan nan nan nan nan nan nan nan nan nan nan nan nan nan nan nan nan nan nan nan nan nan nan nan nan nan nan -0 -0 -0 -0 -0 -0 -0 -0 -0 -0 -0 -0 -0 -0 -0 -0 -0 -0 -0 -0 -0 -0 -0
nan nan nan nan nan nan nan nan nan nan nan nan nan nan nan nan nan nan nan nan nan nan nan nan nan nan nan nan nan nan nan nan nan nan nan nan nan nan nan nan nan nan nan nan nan nan nan nan nan nan nan nan nan nan nan nan nan nan nan nan nan -0 -0 -0 -0 -0 -0 -0 -0 -0 -0 -0 -0 -0 -0 -0 -0 -0 -0 -0 -0 -0 -0 -0 -0 -0
nan nan nan nan nan nan nan nan nan nan nan nan nan nan nan nan nan nan nan nan nan nan nan nan nan nan nan nan nan nan nan nan nan nan nan nan nan nan nan nan nan nan nan nan nan nan nan nan nan nan nan nan nan nan nan nan nan -0 -0 -0 -0 -0 -0 -0 -0 -0 -0 -0 -0 -0 -0 -0 -0 -0 -0 -0 -0 -0 -0 -0 -0 -0 -0 -0 -0 -0
nan nan nan nan nan nan nan nan nan nan nan nan nan nan nan nan nan nan nan nan nan nan nan nan nan nan nan nan nan nan nan nan nan nan nan nan nan nan nan nan nan nan nan nan nan nan nan nan nan nan nan nan nan nan nan nan nan -0 -0 -0 -0 -0 -0 -0 -0 -0 -0 -0 -0 -0 -0 -0 -0 -0 -0 -0 -0 -0 -0 -0 -0 -0 -0 -0 -0 -0
nan nan nan nan nan nan nan nan nan nan nan nan nan nan nan nan nan nan nan nan nan nan nan nan nan nan nan nan nan nan nan nan nan nan nan nan nan nan nan nan nan nan nan nan nan nan nan nan nan nan nan nan nan nan nan nan nan -0 -0 -0 -0 -0 -0 -0 -0 -0 -0 -0 -0 -0 -0 -0 -0 -0 -0 -0 -0 -0 -0 -0 -0 -0 -0 -0 -0 -0
nan nan nan nan nan nan nan nan nan nan nan nan nan nan nan nan nan nan nan nan nan nan nan nan nan nan nan nan nan nan nan nan nan nan nan nan nan nan nan nan nan nan nan nan nan nan nan nan nan nan nan nan nan nan nan nan nan nan -0 -0 -0 -0 -0 -0 -0 -0 -0 -0 -0 -0 -0 -0 -0 -0 -0 -0 -0 -0 -0 -0 -0 -0 -0 -0 -0 -0
nan nan nan nan nan nan nan nan nan nan nan nan nan nan nan nan nan nan nan nan nan nan nan nan nan nan nan nan nan nan nan nan nan nan nan nan nan nan nan nan nan nan nan nan nan nan nan nan nan nan nan nan nan nan nan nan nan nan -0 -0 -0 -0 -0 -0 -0 -0 -0 -0 -0 -0 -0 -0 -0 -0 -0 -0 -0 -0 -0 -0 -0 -0 -0 -0 -0 -0
nan nan nan nan nan nan nan nan nan nan nan nan nan nan nan nan nan nan nan nan nan nan nan nan nan nan nan nan nan nan nan nan nan nan nan nan nan nan nan nan nan nan nan nan nan nan nan nan nan nan nan nan nan nan nan nan nan nan -0 -0 -0 -0 -0 -0 -0 -0 -0 -0 -0 -0 -0 -0 -0 -0 -0 -0 -0 -0 -0 -0 -0 -0 -0 -0 -0 -0
nan nan nan nan nan nan nan nan nan nan nan nan nan nan nan nan nan nan nan nan nan nan nan nan nan nan nan nan nan nan nan nan nan nan nan nan nan nan nan nan nan nan nan nan nan nan nan nan nan nan nan nan nan nan nan nan nan nan -0 -0 -0 -0 -0 -0 -0 -0 -0 -0 -0 -0 -0 -0 -0 -0 -0 -0 -0 -0 -0 -0 -0 -0 -0 -0 -0 -0
nan nan nan nan nan nan nan nan nan nan nan nan nan nan nan nan nan nan nan nan nan nan nan nan nan nan nan nan nan nan nan nan nan nan nan nan nan nan nan nan nan nan nan nan nan nan nan nan nan nan nan nan nan nan nan nan nan nan nan nan nan -0 -0 -0 -0 -0 -0 -0 -0 -0 -0 -0 -0 -0 -0 -0 -0 -0 -0 -0 -0 -0 -0 -0 -0 -0
nan nan nan nan nan nan nan nan nan nan nan nan nan nan nan nan nan nan nan nan nan nan nan nan nan nan nan nan nan nan nan nan nan nan nan nan nan nan nan nan nan nan nan nan nan nan nan nan nan nan nan nan nan nan nan nan nan nan nan -0 -0 -0 -0 -0 -0 -0 -0 -0 -0 -0 -0 -0 -0 -0 -0 -0 -0 -0 -0 -0 -0 -0 -0 -0 -0 -0
nan nan nan nan nan nan nan nan nan nan nan nan nan nan nan nan nan nan nan nan nan nan nan nan nan nan nan nan nan nan nan nan nan nan nan nan nan nan nan nan nan nan nan nan nan nan nan nan nan nan nan nan nan nan -0 -0 -0 -0 -0 -0 -0 -0 -0 -0 -0 -0 -0 -0 -0 -0 -0 -0 -0 -0 -0 -0 -0 -0 -0 -0 -0 -0 -0 -0 -0 -0
nan nan nan nan nan nan nan -0 -0 -0 nan nan nan nan nan nan nan nan nan nan nan nan nan nan nan nan nan nan nan nan nan nan nan nan nan nan nan nan nan nan nan nan nan nan nan nan nan nan nan nan nan nan nan nan nan -0 -0 -0 -0 -0 -0 -0 -0 -0 -0 -0 -0 -0 -0 -0 -0 -0 -0 -0 -0 -0 -0 -0 -0 -0 -0 -0 -0 -0 -0 -0
-11 -13 -0 -0 -0 -0 -0 -0 -0 -0 -0 -9 nan nan nan nan nan nan nan nan nan nan nan nan nan nan nan nan nan nan nan nan nan nan nan nan nan nan nan nan nan nan nan nan nan nan nan nan nan nan nan nan nan nan nan -0 -0 -0 -0 -0 -0 -0 -0 -0 -0 -0 -0 -0 -0 -0 -0 -0 -0 -0 -0 -0 -0 -0 -0 -0 -0 -0 -0 -0 -0 -0
-0 -0 -0 -0 -0 -0 -0 -1 -1 -1 -0 -0 -0 -0 nan nan nan nan nan nan nan nan nan nan nan nan nan nan nan nan nan nan nan nan nan nan nan nan nan nan nan nan nan nan nan nan nan nan nan nan nan nan nan nan nan nan nan nan nan nan nan -0 -0 -0 -0 -0 -0 -0 -0 -0 -0 -0 -0 -0 -0 -0 -0 -0 -0 -0 -0 -0 -0 -0 -0 nan
nan nan nan nan nan nan nan nan nan nan nan -0 -0 -0 nan nan nan nan nan nan nan nan nan nan nan nan nan nan nan nan nan nan nan nan nan nan nan nan nan nan nan nan nan nan nan nan nan nan nan nan nan nan nan nan nan nan nan nan nan nan nan nan nan nan nan nan nan nan -0 -0 -0 -0 -0 -0 -0 -0 -0 -0 -0 -0 -0 -0 -0 -0 -0 nan
nan nan nan nan nan nan nan nan nan nan nan nan nan nan nan nan nan nan nan nan nan nan nan nan nan nan nan nan nan nan nan nan nan nan nan nan nan nan nan nan nan nan nan nan nan nan nan nan nan nan nan nan nan nan nan nan nan nan nan nan nan nan nan nan nan nan nan nan nan nan -0 -0 -0 -0 -0 -0 -0 -0 -0 -0 -0 -0 -1 -16 -16 nan
nan nan nan nan nan nan nan nan nan nan nan nan nan nan nan nan nan nan nan nan nan nan nan nan nan nan nan nan nan nan nan nan nan nan nan nan nan nan nan nan nan nan nan nan nan nan nan nan nan nan nan nan nan nan nan nan nan nan nan nan nan nan nan nan nan nan nan nan nan nan -0 -0 -0 -0 -0 -0 -0 -0 -0 -0 -0 -0 -6 -21 -21 nan
nan nan nan nan nan nan nan nan nan nan nan nan nan nan nan nan nan nan nan nan nan nan nan nan nan nan nan nan nan nan nan nan nan nan nan nan nan nan nan nan nan nan nan nan nan nan nan nan nan nan nan nan nan nan nan nan nan nan nan nan nan nan nan nan nan nan nan nan nan nan nan nan nan nan -0 -0 -0 -0 -0 -0 -0 -0 -4 nan nan nan
nan nan nan nan nan nan nan nan nan nan nan nan nan nan nan nan nan nan nan nan nan nan nan nan nan nan nan nan nan nan nan nan nan nan nan nan nan nan nan nan nan nan nan nan nan nan nan nan nan nan nan nan nan nan nan nan nan nan nan nan nan nan nan nan nan nan nan nan nan nan nan nan nan nan nan -0 -0 -0 -0 -0 -0 -0 -0 -15 -15 -11
nan nan nan nan nan nan nan nan nan nan nan nan nan nan nan nan nan nan nan nan nan nan nan nan nan nan nan nan nan nan nan nan nan nan nan nan nan nan nan nan nan nan nan nan nan nan nan nan nan nan nan nan nan nan nan nan nan nan nan nan nan nan nan nan nan nan nan nan nan nan nan nan nan nan nan nan nan nan -0 -0 -0 -0 -0 -0 -0 -6
nan nan nan nan nan nan nan nan nan nan nan nan nan nan nan nan nan nan nan nan nan nan nan nan nan nan nan nan nan nan nan nan nan nan nan nan nan nan nan nan nan nan nan nan nan nan nan nan nan -1 nan nan nan nan nan nan nan nan nan nan nan nan nan nan nan nan nan nan nan nan nan nan nan nan nan nan nan nan -0 -0 -0 -0 -0 -0 -0 -0
nan nan nan nan nan nan nan nan nan nan nan nan nan nan nan nan nan nan nan nan nan nan nan nan nan nan nan nan nan nan nan nan nan nan nan nan nan nan nan nan nan nan nan nan nan nan nan nan nan -0 -0 nan nan nan nan nan nan nan nan nan nan nan nan nan nan nan nan nan nan nan nan nan nan nan nan nan nan nan -0 -0 -0 -0 -0 -0 -0 -0
nan nan nan nan nan nan nan nan nan nan nan nan nan nan nan nan nan nan nan nan nan nan nan nan nan nan nan nan nan nan nan nan nan nan nan nan nan nan nan nan nan nan nan nan nan nan nan nan nan nan nan nan nan nan nan nan nan nan nan nan nan nan nan nan nan nan nan nan nan nan nan nan nan nan nan nan nan nan -0 -0 -0 -0 -0 -0 -0 -0
nan nan nan nan nan nan nan nan nan nan nan nan nan nan nan nan nan nan nan nan nan nan nan nan nan nan nan nan nan nan nan nan nan nan nan nan nan nan nan nan nan nan nan nan nan nan nan nan nan nan nan nan nan nan nan nan nan nan nan nan nan nan nan nan nan nan nan nan nan nan nan nan nan nan nan nan nan nan nan nan nan nan -0 -0 -0 -0
nan nan nan nan nan nan nan nan nan nan nan nan nan nan nan nan nan nan nan nan nan nan nan nan nan nan nan nan nan nan nan nan nan nan nan nan nan nan nan nan nan nan nan nan nan nan nan nan nan nan nan nan nan nan nan nan nan nan nan nan nan nan nan nan nan nan nan nan nan nan nan nan nan nan nan nan nan nan nan nan nan nan nan nan nan nan
nan nan nan nan nan nan nan nan nan nan nan nan nan nan nan nan nan nan nan nan nan nan nan nan nan nan nan nan nan nan nan nan nan nan nan nan nan nan nan nan nan nan nan nan nan nan nan nan nan -3 -2 nan nan nan nan nan nan nan -0 nan nan nan nan nan nan nan nan nan nan nan nan nan nan nan nan nan nan nan nan nan nan nan nan nan nan nan
nan nan nan nan nan nan nan nan nan nan nan nan nan nan nan nan nan nan nan nan nan nan nan nan nan nan nan nan nan nan nan nan nan nan nan nan nan nan nan nan nan nan nan nan nan nan nan nan nan nan nan nan nan nan nan nan nan -0 -0 nan nan nan nan -1 -1 nan nan nan nan nan nan nan nan nan nan nan nan nan nan nan nan nan nan nan nan nan
nan nan nan nan nan nan nan nan nan nan nan nan nan nan nan nan nan nan nan nan nan nan nan nan nan nan nan nan nan nan nan nan nan nan nan nan nan nan nan nan nan nan nan nan nan nan -6 -3 -3 -3 nan nan nan nan nan nan nan -0 -0 nan nan nan nan nan nan nan nan nan nan nan nan nan nan nan nan nan nan nan nan nan nan nan nan nan nan nan
nan nan nan nan nan nan nan nan nan nan nan nan nan nan nan nan nan nan nan nan nan nan nan nan nan nan nan nan nan nan nan nan nan nan nan nan nan nan nan nan nan nan nan nan nan nan nan -1 -1 -3 -6 -6 nan nan nan nan nan nan nan -1 -1 nan nan nan nan nan nan nan nan nan nan nan nan nan nan nan nan nan nan nan nan nan nan nan nan nan
nan nan nan nan nan nan nan nan nan nan nan nan nan nan -17 nan nan nan nan nan nan nan nan nan nan nan nan nan nan nan nan nan nan nan nan nan nan nan nan nan nan nan nan nan nan nan nan -4 -4 -6 -9 -7 nan nan nan nan nan nan nan nan nan nan nan nan nan nan nan nan nan nan nan nan nan nan nan nan nan nan nan nan nan nan nan nan nan nan
nan nan nan nan nan nan nan nan nan nan nan nan -21 -21 -15 nan nan nan nan nan nan nan nan nan nan nan nan nan nan nan nan nan nan nan nan nan -6 -6 nan nan nan nan nan nan nan nan nan nan nan nan nan nan nan nan nan nan nan nan nan -1 -1 nan nan nan nan nan nan nan nan nan nan nan nan nan nan nan nan nan nan nan nan nan nan nan nan nan
nan nan nan nan nan nan nan nan nan nan nan -19 -11 -11 -12 nan nan nan nan nan nan nan nan nan nan nan -1 nan nan nan nan nan nan nan nan nan nan nan nan nan nan nan nan nan nan nan nan nan nan nan nan nan nan nan nan nan nan nan nan -2 -2 nan nan nan nan nan nan nan nan nan nan nan nan nan nan nan nan nan nan nan nan nan nan nan nan nan
nan nan nan nan nan nan nan nan nan nan nan nan -11 -11 -11 nan nan nan nan nan nan nan nan -14 -14 -3 -1 nan nan nan nan nan nan nan nan nan nan nan nan nan nan nan nan nan nan nan nan nan nan nan nan nan nan nan nan nan nan nan nan nan nan nan nan nan nan nan nan nan nan nan nan nan nan nan nan nan nan nan nan nan nan nan nan nan nan nan
nan nan nan nan nan nan nan nan nan nan nan nan nan nan -16 nan nan nan nan nan nan -10 -1 nan nan nan nan nan nan nan nan nan nan nan nan nan nan nan nan nan nan nan nan nan nan nan nan nan nan nan nan nan nan nan nan nan nan nan nan nan nan nan nan nan nan nan nan nan nan nan nan nan nan nan nan nan nan nan nan nan nan nan nan nan nan nan
nan nan nan -4 -4 -7 -8 nan nan nan nan nan nan nan nan -7 -0 -0 -7 nan nan nan nan nan nan nan nan nan nan nan nan nan nan nan nan nan nan nan nan nan nan nan nan nan nan nan nan nan nan nan nan nan nan nan nan nan nan nan nan nan nan nan nan nan nan nan nan nan nan nan nan nan nan nan nan nan nan nan nan nan nan nan nan nan nan nan
nan nan -7 nan nan nan nan nan nan nan -9 -5 -5 -5 nan nan nan nan nan nan nan nan nan nan nan nan nan nan nan nan nan nan nan nan nan nan nan nan nan nan nan nan nan nan nan nan nan nan nan nan nan nan nan nan nan nan nan nan nan nan nan nan nan nan nan nan nan nan nan nan nan nan nan nan nan nan nan nan nan nan nan nan nan nan nan nan
nan nan nan nan nan nan nan -8 -3 -3 -2 -2 -2 -2 -7 nan nan nan nan nan nan nan nan nan nan nan nan nan nan nan nan nan nan nan nan nan nan nan nan nan nan nan nan nan nan nan nan nan nan nan -7 -0 nan nan nan nan nan nan nan nan nan nan nan nan nan nan nan nan nan nan nan nan nan nan nan nan nan nan nan nan nan nan nan nan nan nan
Wind_Speed
2 2 2 3 2 2 3 4 3 3 2 3 3 3 3 4 3 3 4 4 4 4 3 3 3 2 1 3 5 6 7 7 8 8 7 7 7 7 7 7 8 9 9 10 10 10 10 10 10 10 10 10 10 10 10 10 10 10 10 10 10 10 10 10 10 10 10 10 10 10 10 10 9 9 9 9 9 9 9 9 9 10 10 10 10 10
2 2 2 3 3 2 2 3 3 3 2 2 2 3 3 3 3 2 3 3 3 3 3 3 2 2 0 2 5 7 7 8 7 7 7 6 6 7 7 8 8 9 9 9 9 9 9 9 9 9 9 9 9 9 9 9 9 9 9 9 9 9 9 9 9 9 9 9 9 9 9 9 9 9 9 9 9 9 9 10 10 10 10 10 10 10
2 2 2 2 2 2 2 2 2 2 2 2 2 2 3 3 2 2 2 2 2 2 2 2 2 1 1 2 4 6 7 7 7 6 6 6 6 7 8 8 8 8 8 8 8 8 8 9 9 9 10 10 10 10 9 9 9 9 9 9 9 9 9 8 8 8 8 8 8 8 8 9 9 9 9 9 9 9 10 10 10 10 10 10 10 10
1 1 2 2 2 2 2 1 1 1 2 2 2 2 3 3 2 2 2 2 2 2 2 1 1 1 1 1 3 5 7 7 6 6 6 6 7 7 8 8 8 8 7 7 7 8 8 9 9 10 10 10 10 10 10 10 9 9 9 9 8 8 8 8 8 8 8 8 8 8 8 9 9 9 9 9 9 9 9 9 9 10 10 10 10 10
1 1 1 1 2 2 1 1 1 1 2 2 2 2 2 2 2 2 2 2 1 1 1 1 1 1 1 1 3 5 6 6 6 6 6 6 7 7 8 7 7 6 6 7 7 8 9 9 10 10 10 10 10 10 10 10 9 9 9 8 8 8 7 7 7 7 8 8 8 9 9 9 9 9 9 9 9 10 9 9 9 9 10 10 10 10
1 2 2 1 1 1 1 1 1 1 1 1 2 2 2 2 2 1 1 1 1 1 1 1 1 1 2 2 3 5 5 6 6 6 6 6 6 6 6 6 5 5 6 6 7 8 9 9 10 10 10 10 10 10 9 9 9 8 8 8 7 7 7 7 7 8 8 8 9 9 9 9 10 10 10 10 10 10 10 10 10 10 10 10 10 10
1 2 2 1 1 1 1 1 1 1 1 1 1 2 2 2 2 1 1 1 1 1 1 1 1 1 1 1 2 3 4 5 5 6 6 5 5 4 4 4 5 5 6 7 8 9 9 9 10 10 10 10 9 9 9 9 8 8 8 7 7 7 7 8 8 8 9 9 9 10 10 10 10 10 10 10 10 10 10 10 10 10 10 10 10 10
1 1 1 1 1 1 1 1 1 2 1 1 1 1 1 1 1 1 1 0 0 0 0 0 1 1 0 1 1 2 3 3 3 3 4 3 3 3 3 4 5 6 7 8 8 9 9 10 10 10 10 10 10 9 9 9 9 9 8 8 8 8 8 8 9 9 9 10 10 10 10 10 10 10 10 10 10 10 10 10 10 10 10 10 10 10
2 1 1 1 1 1 1 1 1 1 1 1 1 1 1 1 1 1 1 1 1 1 1 1 1 1 1 1 2 2 2 2 1 1 1 1 1 2 3 4 5 6 7 8 8 9 10 10 10 10 10 10 10 10 10 9 9 9 9 9 9 9 9 9 9 10 10 10 10 11 11 11 11 11 10 10 10 10 10 10 10 10 10 11 11 11
2 1 1 1 1 1 1 1 1 1 2 1 1 1 1 1 0 1 1 1 2 2 2 2 1 1 2 2 2 3 3 3 3 2 1 1 1 2 2 3 4 5 7 8 8 9 9 10 10 10 10 10 10 10 10 10 9 9 9 9 9 9 10 10 10 10 11 11 11 11 11 11 11 10 10 10 10 10 10 10 10 10 10 11 11 11
1 1 1 1 1 1 1 1 1 1 2 2 2 2 2 1 1 1 1 2 2 2 2 2 1 1 2 2 3 3 4 4 4 4 4 4 4 3 3 3 3 4 6 7 8 9 9 10 10 10 10 10 10 10 9 9 9 9 9 10 10 10 10 11 11 11 11 11 11 11 11 11 10 10 10 10 10 10 10 10 10 10 10 11 11 11
1 1 0 0 1 1 1 1 2 2 2 2 2 2 2 2 1 1 0 1 2 2 3 2 1 1 1 1 2 3 3 3 3 3 4 4 4 3 3 3 3 4 5 5 6 8 9 9 9 9 9 9 9 9 9 9 9 9 10 10 10 11 11 11 11 11 11 11 11 11 11 10 10 10 10 10 10 10 10 10 10 10 10 11 11 11
1 1 1 1 1 2 2 2 2 2 2 2 2 1 1 2 1 1 1 0 1 1 2 2 2 2 1 1 1 2 2 2 2 2 2 2 2 2 2 2 2 2 2 3 4 5 7 8 8 8 9 8 9 9 9 9 9 9 10 10 11 11 11 11 11 11 11 11 11 10 10 10 10 10 10 10 10 10 10 10 10 10 11 11 11 11
1 1 1 2 2 2 2 2 2 2 2 1 0 1 1 1 1 1 1 1 1 1 1 2 2 2 2 1 1 1 1 1 2 2 2 2 2 1 1 1 1 2 1 2 3 4 6 6 6 6 8 8 8 9 9 9 9 9 9 10 10 11 11 11 11 11 11 11 10 10 10 10 10 10 10 10 10 10 10 10 11 11 11 11 11 12
1 1 2 2 1 1 1 1 1 1 1 1 1 1 1 1 1 2 1 1 2 2 2 2 2 2 2 2 1 1 0 1 1 2 2 2 2 1 0 1 2 2 1 2 3 4 5 4 3 4 5 6 7 8 9 8 9 9 9 10 10 10 10 10 10 10 10 10 10 10 10 10 10 10 10 10 10 10 11 11 11 11 11 12 12 12
1 1 2 1 1 1 1 0 0 1 1 1 1 1 1 1 1 1 1 1 1 2 2 2 2 3 3 2 1 0 0 1 1 1 1 2 2 1 1 0 1 2 2 2 3 3 3 3 3 3 4 7 8 10 10 9 8 9 9 9 10 10 10 10 10 10 10 10 10 10 10 10 10 10 10 10 10 11 11 11 11 11 11 12 12 12
0 1 1 1 0 1 2 1 1 1 1 1 1 0 1 1 1 1 1 1 1 2 2 2 1 1 3 2 2 1 1 1 1 1 1 2 2 1 1 0 1 2 2 2 3 3 3 3 3 4 4 7 9 10 9 9 9 9 9 9 10 10 10 10 10 10 10 10 10 10 10 10 10 10 10 10 10 11 11 11 11 11 12 12 12 12
0 1 1 1 0 1 2 1 1 1 1 1 0 0 0 1 1 1 1 1 1 1 1 1 1 1 1 2 2 2 0 1 1 0 1 3 3 2 0 1 1 2 3 3 3 3 3 3 3 4 5 8 9 10 10 10 10 10 10 10 10 10 10 10 10 10 10 10 10 10 10 10 10 10 10 10 10 11 11 11 11 11 12 12 12 12
0 1 1 1 1 1 1 1 1 1 1 1 1 1 1 1 1 1 1 1 1 2 2 1 1 1 2 2 3 2 1 1 0 1 2 3 3 2 0 0 1 2 2 3 3 3 3 3 4 6 8 9 10 10 11 11 11 11 11 11 11 11 11 11 11 11 11 11 11 10 10 10 10 10 10 10 10 10 11 11 11 11 12 12 12 13
1 2 2 2 2 1 1 2 2 2 2 2 2 2 1 1 1 1 0 0 1 1 2 2 1 2 2 3 3 2 1 1 0 1 2 3 3 2 1 0 1 2 2 3 3 3 2 3 3 5 8 9 10 11 12 12 13 13 12 12 12 12 11 11 11 11 11 11 11 11 10 10 10 10 10 10 10 10 11 11 11 12 12 12 13 13
1 2 3 3 2 1 1 2 2 2 2 2 3 2 1 1 0 0 0 0 0 1 1 1 2 2 2 3 3 2 1 1 0 1 2 2 2 2 1 0 0 1 2 3 3 3 2 2 3 3 5 8 11 12 13 13 14 13 13 13 12 12 12 11 11 11 11 11 11 10 10 10 10 10 10 10 10 10 11 11 12 12 12 13 13 13
2 2 3 3 3 2 2 2 2 2 3 3 2 1 1 0 0 1 1 1 1 1 1 2 2 2 2 2 3 2 1 1 1 1 1 2 3 2 1 0 0 1 2 3 3 2 2 2 3 4 6 9 12 13 14 14 14 13 13 12 12 12 11 11 11 11 11 11 10 10 10 10 10 10 10 10 11 11 12 12 12 12 13 13 13 13
2 2 3 3 3 3 2 2 1 1 2 3 2 2 2 2 2 2 2 2 2 2 3 3 2 2 2 2 2 2 1 1 2 1 0 1 3 3 1 1 1 1 2 3 3 3 2 2 3 4 6 10 13 14 14 14 13 12 12 12 11 11 11 11 10 10 10 10 10 10 10 9 9 10 10 11 11 12 12 12 12 13 13 13 13 13
2 2 2 3 3 3 2 2 2 2 2 2 2 2 2 2 2 2 2 2 2 2 2 1 1 1 2 2 2 2 1 1 1 1 1 2 3 3 2 1 1 2 3 3 2 2 2 3 3 4 5 9 11 12 12 12 11 11 10 10 10 9 9 9 9 9 9 9 9 9 9 9 10 10 11 11 12 12 12 12 12 13 13 13 13 13
2 2 2 3 3 3 2 2 1 1 2 2 2 2 2 2 2 2 1 1 1 0 1 1 2 2 2 2 2 2 1 1 1 1 1 1 2 3 2 1 1 2 3 3 2 2 2 4 4 4 4 6 8 10 10 10 9 8 8 8 7 7 7 7 7 7 8 8 8 8 9 10 10 11 12 12 12 12 12 12 12 13 13 13 13 14
3 2 2 2 1 2 3 4 5 5 3 1 1 2 2 2 1 1 0 1 1 1 1 2 3 3 3 2 2 2 1 0 1 2 2 1 2 3 2 1 1 1 3 3 3 2 3 4 4 3 2 3 5 7 9 9 8 7 6 6 6 6 6 7 7 7 8 8 9 9 10 11 11 12 12 12 12 12 12 12 13 13 13 13 13 13
1 1 2 3 4 5 6 7 8 9 9 8 6 3 1 2 1 1 1 2 2 1 1 2 3 3 2 2 2 2 1 1 1 1 2 1 1 2 2 1 0 1 2 3 3 3 5 5 4 3 2 2 3 5 7 8 8 8 8 8 8 8 8 8 8 9 9 10 10 10 11 11 12 12 12 12 12 12 12 13 13 13 13 13 12 10
5 5 5 5 6 6 6 7 7 8 9 10 10 8 2 1 2 2 3 2 1 1 1 2 3 3 2 2 2 2 1 1 1 1 2 1 1 2 2 1 1 1 2 3 3 4 5 4 3 3 2 2 3 4 6 8 9 9 10 10 10 10 10 10 10 10 10 11 11 11 11 11 12 12 12 12 12 12 13 13 13 13 12 11 8 5
6 6 6 6 6 6 6 6 7 7 8 9 10 8 4 1 2 3 4 2 1 1 2 3 3 3 2 2 2 2 2 2 1 1 2 1 1 2 2 1 1 1 1 3 3 3 3 2 2 2 2 3 3 3 4 6 7 8 9 10 11 11 11 11 11 11 11 11 11 11 11 11 12 12 12 12 12 13 13 13 13 12 9 7 5 4
5 5 5 5 5 5 5 5 5 7 8 8 8 7 4 1 3 3 3 2 2 2 3 3 3 3 2 2 2 2 2 2 1 1 3 2 1 2 1 1 1 1 1 2 3 3 3 2 2 2 2 3 3 3 3 4 4 5 6 8 9 10 11 11 11 11 11 11 11 11 11 12 12 12 12 13 13 13 13 14 12 10 6 5 4 3
3 3 3 3 3 3 3 4 4 5 6 6 6 5 3 1 2 3 2 3 3 3 3 3 3 2 2 2 2 2 2 2 2 1 3 2 1 1 1 1 1 1 0 1 2 3 3 3 2 2 2 2 3 3 3 3 3 4 4 5 6 7 10 11 11 11 11 11 11 12 12 12 13 13 13 13 13 13 13 14 12 9 6 4 4 4
2 2 2 3 3 3 3 3 3 3 4 4 3 3 2 0 1 2 2 3 3 3 2 2 2 2 2 2 2 2 2 2 2 3 3 1 1 1 1 1 1 1 1 0 1 2 2 3 3 2 2 2 3 3 3 3 3 3 3 3 3 5 8 9 9 9 9 10 11 12 13 13 14 14 14 14 14 14 14 14 12 9 6 4 4 4
1 2 2 2 3 3 3 3 3 3 3 2 2 2 1 0 1 1 2 2 2 3 3 2 2 2 2 3 3 2 2 2 3 4 4 2 1 1 1 1 2 2 1 1 1 2 2 3 3 3 3 3 2 2 2 2 2 2 2 2 2 3 6 6 6 6 7 8 9 10 12 13 13 14 14 14 14 14 14 14 13 11 8 5 4 5
1 2 2 2 3 3 3 3 3 3 3 2 2 1 1 0 0 1 1 2 2 3 3 3 2 2 2 2 2 2 2 1 1 1 2 1 1 1 2 2 2 2 2 2 2 2 3 3 4 4 4 3 2 2 2 2 2 2 2 2 2 3 4 4 4 4 6 6 6 6 8 9 10 12 12 13 13 13 14 14 14 13 12 8 6 5
2 2 2 2 2 3 3 3 3 3 2 2 2 1 1 1 1 1 1 1 2 2 2 3 3 3 2 2 2 2 2 2 2 3 3 1 1 2 2 2 2 2 3 3 3 3 3 4 5 5 5 4 3 2 2 2 2 2 2 2 2 3 3 3 3 4 5 5 5 5 5 5 6 7 9 10 12 13 14 14 14 14 14 12 10 8
2 2 2 2 2 3 3 3 3 3 3 2 2 2 2 1 1 1 1 1 1 1 1 2 2 3 3 3 3 3 3 3 3 3 3 1 1 1 2 3 3 3 3 3 3 3 3 4 5 6 6 6 5 3 2 1 1 1 2 2 2 3 3 3 3 3 4 4 4 4 4 4 5 5 6 10 12 13 14 14 14 14 15 14 14 12
2 2 2 2 2 2 2 2 2 2 2 2 2 2 2 2 2 2 2 2 1 2 2 2 2 3 4 3 4 4 4 4 3 3 3 2 2 2 2 3 3 3 3 3 4 4 4 5 6 6 6 5 5 4 3 2 2 2 2 2 3 3 4 4 4 4 4 5 5 5 4 4 5 5 6 10 11 12 13 13 14 14 14 15 15 15
1 2 2 2 1 1 1 2 2 2 2 2 2 2 2 2 2 2 2 2 2 2 2 2 3 3 5 5 5 4 4 4 4 5 5 3 3 2 3 3 3 3 3 3 3 4 4 5 5 6 5 5 5 5 5 4 3 3 3 3 3 4 4 4 4 4 4 5 5 6 6 5 5 5 5 6 6 6 7 7 8 10 12 12 14 15
1 2 2 2 1 1 1 2 2 3 3 3 3 3 2 2 2 2 2 2 3 3 3 3 3 3 4 5 5 6 5 5 5 5 5 4 3 3 3 3 3 3 3 3 3 3 4 4 5 5 5 5 5 5 5 4 4 5 5 4 4 3 3 3 3 3 4 4 5 6 6 5 4 4 4 4 3 3 4 4 5 6 7 6 8 11
2 2 2 2 2 2 2 3 3 3 3 3 3 3 2 2 1 1 2 2 2 2 2 2 3 3 3 4 5 5 6 5 5 4 3 3 3 3 3 3 3 3 3 3 3 3 4 4 5 6 6 5 6 6 5 5 5 6 7 5 4 3 3 3 3 3 3 4 4 5 5 4 4 4 4 3 3 3 4 3 4 5 5 4 4 5
2 2 3 3 3 3 3 3 3 3 3 2 2 2 2 1 1 1 1 2 2 2 1 1 2 2 3 3 3 4 5 5 5 5 3 4 4 4 3 3 3 3 3 3 3 4 4 5 5 6 6 6 6 7 7 6 7 8 8 6 6 5 6 5 5 4 3 3 4 4 4 4 5 4 4 4 4 4 4 4 4 5 5 4 4 4
3 3 3 3 3 3 3 3 3 3 3 2 2 2 2 1 1 1 1 2 2 2 2 1 2 2 3 3 3 4 4 5 5 5 5 5 5 5 4 4 3 3 3 3 4 4 5 5 5 6 5 5 6 6 7 7 7 7 7 7 7 7 7 6 4 2 2 3 3 3 5 4 4 4 4 5 5 4 5 5 6 6 6 5 4 4
3 3 3 3 3 2 2 2 2 2 2 2 2 2 2 2 1 1 2 2 2 2 2 2 1 2 2 3 3 3 3 4 4 5 5 5 5 5 5 4 4 4 3 3 4 4 4 5 5 5 5 5 5 6 8 7 7 7 6 7 7 6 5 4 3 2 2 3 3 3 3 4 4 4 5 5 5 4 5 6 8 9 8 6 5 5
3 3 3 3 2 2 2 1 1 2 2 2 2 2 2 2 2 2 2 2 2 2 2 1 1 1 2 3 3 3 3 3 3 4 4 5 5 5 5 5 5 4 4 3 3 4 4 5 5 5 5 5 6 6 7 7 7 7 6 7 7 6 6 5 5 4 4 5 4 4 3 3 4 4 4 4 5 5 4 5 5 6 7 6 6 6
2 2 2 2 2 2 1 2 2 2 2 2 2 2 2 2 2 2 2 2 2 2 2 2 2 2 3 3 3 3 2 2 2 3 3 5 6 7 6 5 5 5 5 4 4 4 4 4 5 4 4 4 5 6 7 7 7 8 8 7 7 7 7 7 7 6 6 5 5 4 4 3 3 4 4 5 5 5 5 5 5 6 6 6 6 6
1 2 2 2 1 2 2 2 2 2 2 2 2 2 2 2 2 2 3 3 2 2 2 2 2 3 3 4 3 3 3 3 3 2 2 3 4 4 5 5 5 4 4 4 5 5 5 5 5 4 4 5 6 7 7 7 7 8 7 7 7 7 7 7 6 6 6 6 5 5 4 3 3 4 5 6 6 6 5 5 5 6 6 6 6 6
2 2 2 2 2 2 2 3 2 2 2 2 2 3 3 2 2 2 2 3 2 2 2 2 2 3 4 3 3 3 4 4 4 3 3 3 3 3 3 4 4 4 4 4 5 5 6 6 5 5 5 5 6 7 7 7 7 7 7 7 7 7 7 7 6 5 5 5 5 5 4 3 4 5 6 6 7 6 6 6 6 6 6 6 6 6
2 3 2 2 2 2 2 2 2 2 2 2 2 3 2 2 3 3 2 2 2 2 3 2 2 3 3 3 3 4 4 4 4 4 3 3 3 3 3 3 3 3 4 5 5 6 6 7 7 7 6 6 6 7 8 7 7 7 7 6 7 7 7 7 6 5 5 5 5 4 3 4 4 5 6 6 7 7 7 6 6 5 5 5 6 6
2 2 2 2 2 2 2 2 2 2 3 3 3 3 2 3 4 4 2 2 2 2 2 2 3 3 4 4 4 4 5 5 4 4 3 3 3 3 2 2 2 2 3 4 4 5 5 6 7 8 8 7 8 8 9 8 7 7 6 6 6 7 7 7 6 5 5 5 5 4 4 4 4 5 5 7 8 9 8 7 6 6 5 5 5 5
2 2 3 3 3 3 3 3 3 3 4 4 4 3 2 2 2 2 2 2 2 2 3 3 3 4 4 4 4 4 4 4 4 4 3 3 3 3 2 2 2 2 3 3 3 3 3 4 6 8 10 11 10 9 9 8 8 7 6 6 6 6 7 7 6 5 5 5 5 5 4 4 4 5 5 6 8 10 10 9 7 6 5 5 5 5
3 3 2 2 3 3 3 3 3 4 4 4 4 4 3 2 2 2 2 2 3 3 3 3 4 4 5 5 5 5 5 5 4 4 3 3 3 3 3 2 2 2 3 3 3 3 2 3 3 5 7 11 13 12 9 7 7 6 6 6 5 5 6 6 6 6 6 6 5 5 5 5 5 5 5 6 7 9 10 9 8 7 5 4 4 5
Wind_Direction
25 21 19 23 31 41 34 26 28 33 31 32 35 46 63 60 48 41 54 63 68 70 72 71 70 60 7 288 279 277 274 271 268 265 262 260 260 263 267 271 274 277 277 277 276 275 276 276 276 277 278 277 277 276 276 276 276 276 277 277 277 278 279 280 282 284 285 288 290 292 294 297 298 300 301 301 300 299 298 296 295 294 293 292 292 291
28 25 23 24 33 44 43 30 32 39 43 40 44 53 65 67 58 44 44 62 70 74 79 82 86 88 84 267 270 272 271 270 269 267 265 264 265 267 271 275 277 278 280 281 282 283 285 288 288 288 288 287 286 284 283 281 280 279 279 279 279 279 279 280 282 283 285 287 290 293 295 297 299 300 300 298 296 294 293 291 290 289 288 288 287 287
24 29 26 28 36 45 51 39 42 51 60 55 58 64 72 76 73 63 46 61 71 79 87 100 111 124 146 247 263 267 268 268 268 269 270 272 274 277 279 281 283 284 286 288 290 293 295 296 295 294 293 291 289 287 285 283 281 280 278 277 276 276 276 277 279 281 284 287 291 294 297 298 300 300 299 297 295 293 292 292 292 291 289 289 288 289
28 33 30 32 41 50 56 58 66 75 81 75 72 71 77 80 80 74 59 61 69 80 89 105 122 139 159 241 260 264 266 268 271 274 277 280 282 283 284 284 285 287 289 293 296 299 300 299 297 295 293 291 288 286 283 281 279 277 276 275 274 274 274 276 280 283 287 290 293 295 297 298 298 297 296 296 295 294 295 295 295 295 293 292 291 291
33 37 35 33 41 51 53 65 81 89 88 81 75 72 74 80 85 85 77 74 77 87 98 114 138 162 180 220 253 262 266 272 279 285 289 291 290 289 288 287 288 290 294 299 302 303 303 301 298 295 292 289 286 284 282 280 278 277 277 276 277 278 279 282 286 290 293 293 294 294 294 294 293 293 293 293 293 293 294 293 293 292 291 290 289 289
38 38 39 35 38 43 41 47 66 75 76 70 66 63 62 67 76 84 91 94 102 117 136 159 175 188 198 221 250 265 275 285 293 300 302 300 298 296 294 294 295 299 304 307 308 308 306 303 300 297 294 291 289 287 286 284 284 285 285 286 287 289 290 292 293 294 295 295 294 294 293 292 292 292 292 291 291 291 290 289 289 288 287 286 285 285
51 41 39 38 38 37 27 33 44 56 59 61 56 52 46 49 54 63 80 99 126 155 180 190 191 192 195 232 268 284 294 302 307 310 311 310 310 310 310 310 311 312 313 314 313 310 308 305 303 301 300 299 298 297 297 296 297 298 299 299 298 298 297 296 295 295 294 294 293 292 292 291 290 290 289 289 288 287 287 286 286 285 284 283 283 282
68 53 44 38 37 37 32 30 34 42 54 67 69 60 43 36 32 31 27 34 40 30 255 227 212 193 148 21 342 327 318 314 312 313 313 321 331 337 337 333 329 325 322 318 315 312 309 308 307 306 307 306 305 304 304 304 305 305 305 304 302 300 297 295 294 292 291 291 290 290 289 288 287 286 285 284 284 284 284 284 284 283 283 282 282 281
75 64 48 37 38 53 58 35 23 23 41 72 92 99 89 55 10 352 352 14 17 17 6 348 327 313 346 11 3 349 334 321 299 274 284 321 347 356 359 357 346 335 327 321 317 313 310 308 307 306 306 305 304 303 304 304 304 304 303 301 298 296 293 291 290 289 288 287 287 286 285 284 283 281 281 280 280 279 279 279 279 279 279 280 280 281
68 64 53 23 27 56 89 66 13 2 18 53 82 98 105 94 45 356 345 343 352 2 7 7 349 326 324 340 349 349 344 338 334 341 31 23 27 26 19 13 355 337 328 323 318 315 311 308 306 303 302 301 300 299 299 299 299 298 296 294 291 288 286 285 284 284 283 283 282 281 280 279 279 278 277 277 276 275 274 274 274 275 276 278 279 281
54 50 53 18 7 23 58 53 4 356 15 37 48 51 52 51 52 35 334 316 327 339 346 352 348 328 321 328 339 350 356 352 350 354 5 5 9 13 12 6 350 337 329 324 319 315 311 307 304 302 300 299 297 296 295 294 292 290 287 285 283 281 280 279 279 279 278 278 277 276 276 275 275 275 275 275 274 273 273 273 274 275 276 277 279 280
44 21 27 18 14 14 16 4 358 5 22 36 34 23 11 14 31 61 180 277 309 326 332 328 326 320 312 321 334 344 356 356 351 347 346 349 354 357 358 355 345 336 331 323 316 311 308 306 304 303 303 301 299 297 294 290 287 284 280 278 276 275 274 274 274 274 273 273 273 272 273 273 274 275 275 275 276 276 276 277 277 278 278 278 279 279
10 0 17 22 21 15 7 1 4 11 22 36 36 9 322 335 2 46 120 217 285 311 321 319 316 314 309 313 331 338 346 343 338 333 331 330 337 345 351 342 331 325 324 319 308 301 300 302 303 304 305 304 302 299 295 290 285 280 276 273 271 270 270 270 269 269 269 269 270 270 271 273 274 276 277 278 279 280 281 281 281 281 281 280 280 280
-0 4 23 24 17 7 3 11 16 15 7 13 333 245 263 307 -0 36 57 0 320 311 322 321 314 310 315 317 317 320 332 333 336 337 330 312 307 314 337 314 299 293 301 302 292 287 287 294 299 302 302 302 301 298 293 289 283 278 273 270 268 267 267 267 267 267 267 267 269 270 272 274 276 278 279 280 282 283 283 284 284 284 283 283 282 282
5 19 38 25 8 352 349 7 13 -0 308 285 271 273 299 349 18 38 51 355 331 331 358 353 334 319 317 312 309 311 329 23 13 354 329 304 289 272 180 296 291 286 281 282 280 280 285 290 290 290 292 292 290 288 287 282 278 274 272 269 267 266 266 266 266 267 268 269 270 271 273 274 276 278 280 282 283 284 285 285 284 284 284 283 283 283
18 58 70 48 352 313 292 287 275 274 275 278 291 329 16 18 25 40 72 21 348 357 22 19 359 335 319 314 319 347 36 65 60 23 322 297 288 264 135 304 295 289 281 274 273 276 284 284 278 274 278 283 285 287 288 285 280 277 275 273 271 270 269 269 269 270 270 271 272 273 274 275 276 279 280 282 283 283 284 283 283 282 282 281 281 281
61 82 98 92 326 279 266 244 228 233 254 277 301 353 79 93 96 97 104 97 46 33 40 52 37 335 312 314 317 337 53 78 80 57 313 290 283 269 132 172 273 279 280 273 268 269 277 278 277 275 274 280 285 289 292 291 289 286 283 280 278 276 275 274 273 273 273 273 273 274 274 275 277 279 281 282 282 282 281 281 280 279 279 279 278 278
85 121 122 126 206 254 262 255 241 232 235 249 273 0 72 96 103 107 114 113 99 87 75 96 130 184 256 292 292 288 94 95 87 0 300 283 279 275 124 180 242 263 273 270 266 264 263 265 267 271 276 286 290 294 297 298 296 292 289 286 283 280 279 277 275 274 273 273 274 274 275 276 277 279 280 280 281 280 280 280 280 280 279 278 278 277
210 193 162 176 203 239 267 261 245 226 210 200 180 144 75 42 51 67 92 119 134 141 145 156 186 202 202 244 263 269 150 119 103 299 290 281 277 279 12 224 244 256 265 263 261 259 257 261 269 277 283 291 295 297 299 299 297 294 291 288 284 282 279 277 276 274 273 273 273 274 275 276 277 278 279 279 280 281 281 282 282 282 280 279 278 277
197 213 204 192 187 200 288 269 245 218 199 177 150 125 100 59 42 54 83 126 143 144 142 158 191 220 218 242 259 267 185 124 98 290 279 275 275 280 341 330 262 263 271 265 261 259 260 269 280 287 290 293 295 297 297 297 295 293 290 287 284 281 278 277 275 274 273 272 273 273 274 274 275 275 276 278 279 281 282 282 282 281 280 280 279 278
178 221 222 188 162 145 259 256 243 216 180 137 111 93 82 53 20 340 218 155 133 122 118 180 215 221 216 237 253 260 201 137 151 289 285 284 283 285 311 41 305 278 279 273 269 268 271 277 280 282 285 291 293 294 295 295 294 292 289 286 282 279 277 275 274 273 272 272 272 272 272 272 273 273 275 278 280 281 282 282 281 280 280 279 279 278
162 213 225 191 174 172 216 233 226 193 156 132 121 114 164 158 238 255 222 180 175 185 202 217 220 220 212 239 251 252 199 168 171 211 303 304 295 290 295 31 59 274 273 273 275 279 283 280 273 273 278 287 292 294 295 294 293 291 288 284 281 277 275 273 272 271 271 270 270 270 270 271 272 274 277 280 281 282 282 282 281 280 280 279 278 277
157 192 211 197 193 195 212 219 215 189 161 157 167 183 185 177 187 203 203 190 192 203 212 218 221 224 226 244 255 257 214 182 159 140 101 290 286 284 290 339 0 296 269 269 277 287 297 285 273 272 279 288 292 294 296 295 293 290 287 283 279 276 273 271 270 269 269 269 269 269 270 273 276 278 281 283 283 283 283 282 281 281 280 279 279 278
160 184 199 198 198 200 203 208 208 199 180 184 188 189 184 184 186 188 186 184 188 199 211 216 242 262 257 260 271 277 243 184 153 134 140 260 269 274 284 322 326 296 275 268 274 289 301 288 276 270 275 287 292 296 299 299 297 293 288 283 279 276 272 271 270 269 269 270 271 273 276 279 282 284 285 286 285 284 284 283 282 282 281 281 281 281
171 185 196 198 201 203 208 224 229 202 172 187 198 204 202 206 200 184 155 175 191 225 300 297 291 287 285 287 289 290 275 187 157 150 164 247 269 276 282 291 289 281 277 278 283 291 295 288 282 276 273 286 296 303 308 308 306 302 295 290 286 283 280 279 278 278 278 280 281 283 284 287 288 289 288 288 287 286 285 284 284 283 283 283 283 283
174 185 194 212 241 277 313 326 336 341 330 285 219 209 203 206 201 189 19 240 232 243 278 280 280 280 283 285 283 280 276 222 171 169 169 218 276 286 285 282 267 275 284 289 292 292 290 287 285 283 282 294 308 315 320 324 324 323 321 317 314 310 308 302 300 298 295 293 292 291 291 291 291 291 290 289 288 287 286 286 286 285 285 285 285 285
53 27 10 -0 355 352 351 349 343 336 332 324 312 289 210 168 167 212 271 246 226 212 240 262 271 277 280 276 272 268 262 227 197 188 169 176 267 280 282 292 319 307 295 292 289 285 285 285 286 290 299 303 314 321 326 332 337 341 342 337 334 330 325 317 312 307 302 299 296 295 294 294 293 292 291 290 289 289 288 289 289 288 288 288 287 286
25 23 22 16 11 6 359 350 340 331 326 321 315 311 308 144 164 221 245 231 200 171 221 250 262 270 275 269 272 274 272 244 216 185 154 133 239 261 269 290 320 315 298 295 290 286 286 285 289 296 302 298 298 307 319 332 339 342 341 336 332 328 323 317 312 307 304 301 299 297 296 295 295 294 294 293 292 291 291 291 291 291 290 290 289 289
21 22 24 21 16 10 1 349 335 324 316 312 309 308 314 175 185 215 229 203 172 180 238 247 254 260 268 276 286 292 283 266 232 164 131 119 208 257 268 292 298 295 304 306 307 306 303 294 290 290 288 289 290 297 306 328 335 337 334 331 327 324 320 316 313 309 306 304 302 300 299 298 298 298 297 297 296 294 293 292 292 292 291 289 287 286
8 8 8 6 4 1 353 337 323 314 309 308 306 305 308 211 193 204 208 178 173 198 232 243 248 253 263 282 291 293 282 271 245 157 125 128 198 260 275 287 277 271 327 326 323 319 315 305 293 280 276 287 293 299 308 324 329 329 327 326 324 321 318 315 313 311 309 307 305 304 303 303 302 302 301 300 298 296 294 293 292 291 288 285 283 281
348 348 337 333 335 335 331 317 309 307 307 308 309 310 315 216 187 190 185 173 178 194 216 231 239 245 251 268 277 280 279 271 243 178 132 142 205 248 241 271 266 249 190 348 333 321 316 309 299 289 285 295 303 308 315 318 319 319 317 318 316 314 312 312 312 311 310 309 307 307 306 305 305 304 303 301 299 297 295 294 292 290 287 284 282 280
323 322 310 308 311 314 314 310 306 304 305 307 309 311 313 239 180 178 176 174 175 180 193 213 230 241 244 248 251 256 268 261 217 183 156 165 225 246 210 251 266 261 215 228 291 297 302 299 296 295 295 300 301 302 301 299 298 298 300 303 302 302 304 306 308 309 308 308 307 307 306 305 305 304 303 301 299 298 296 294 292 290 288 284 281 278
299 297 296 303 307 308 306 304 303 301 299 298 295 296 303 296 191 180 178 175 171 167 168 183 210 238 252 252 251 252 262 251 197 179 172 175 227 262 249 274 286 288 276 253 237 241 259 278 289 295 295 291 287 281 277 273 269 269 277 285 285 290 296 301 303 304 302 303 304 304 304 304 303 302 301 300 299 298 296 294 293 291 288 284 279 275
290 290 296 306 309 310 306 304 303 300 299 295 291 290 296 296 216 191 188 186 180 170 162 166 180 206 242 258 261 262 264 262 240 196 166 174 240 276 288 292 294 295 294 281 267 259 261 272 284 293 296 291 280 262 254 256 259 261 260 262 269 279 287 294 296 296 295 297 299 299 300 300 300 299 298 297 296 295 294 292 290 288 285 281 276 272
304 301 305 313 317 317 315 314 313 312 309 301 298 296 301 300 285 251 224 213 200 183 171 171 175 180 189 208 241 261 269 274 306 333 355 339 298 290 292 287 288 291 293 288 284 281 279 280 285 290 295 296 290 276 249 244 253 266 269 256 256 262 270 277 284 288 291 293 292 291 290 290 290 291 291 290 289 289 288 288 287 286 284 281 279 278
329 321 314 317 318 318 316 314 316 316 315 305 298 294 296 298 295 290 280 278 268 247 221 207 195 187 184 193 211 236 255 261 281 302 317 299 271 266 275 276 280 284 286 284 284 284 285 287 288 289 292 293 294 293 278 253 255 272 279 267 261 260 262 263 267 272 282 285 284 282 279 277 276 277 278 280 281 282 284 285 286 286 285 285 285 284
331 315 304 304 305 305 303 303 303 302 299 294 292 291 288 285 284 282 280 283 282 276 268 259 246 231 220 211 214 224 240 249 258 266 269 254 237 234 253 268 272 273 272 276 280 283 286 288 289 289 288 286 289 294 297 293 290 287 281 273 267 265 265 263 261 261 267 272 274 274 272 269 267 267 268 273 277 280 283 285 286 286 287 287 287 286
319 301 291 288 284 283 283 282 277 272 268 271 273 275 274 272 272 272 271 262 255 249 250 254 257 257 254 252 246 240 240 243 248 251 252 243 232 227 243 262 267 265 259 263 270 276 281 284 287 289 288 284 285 288 295 301 302 299 290 282 274 268 263 260 258 256 258 264 268 270 270 266 263 262 265 270 274 278 281 283 283 284 285 285 285 285
283 277 274 264 249 236 240 250 254 255 256 259 259 258 255 252 251 250 248 241 236 232 232 241 250 259 263 267 267 263 258 249 244 241 242 233 226 224 237 253 261 262 257 254 257 261 266 271 276 282 287 289 290 292 295 297 299 300 300 295 286 272 259 253 251 251 252 256 263 268 270 268 265 262 263 266 267 269 270 272 273 274 276 279 282 283
253 254 256 249 232 214 215 232 241 248 254 260 260 256 243 243 248 252 250 246 243 241 236 240 249 260 265 269 270 269 267 259 251 244 234 222 215 217 228 243 254 260 259 253 249 249 252 260 267 272 277 284 290 294 295 294 296 300 303 303 299 292 286 276 264 254 245 246 252 259 265 264 262 259 256 254 251 251 252 257 263 266 266 265 271 278
245 247 253 250 237 223 220 228 236 244 254 260 263 261 252 265 307 328 329 327 319 310 301 296 296 296 297 287 275 266 261 258 252 245 231 222 218 219 228 237 245 251 254 252 249 247 246 255 262 268 272 277 283 286 287 289 293 296 298 297 296 297 298 292 283 268 253 249 248 250 257 263 264 262 258 257 253 249 246 250 257 262 264 255 250 252
248 245 245 246 237 226 223 230 242 254 264 265 266 262 253 247 263 308 320 319 311 302 298 304 309 312 314 305 291 276 262 255 248 241 235 227 222 221 226 233 238 242 245 250 252 251 248 252 258 265 269 276 281 284 285 287 288 290 291 291 294 297 295 288 279 262 251 255 254 253 256 263 267 268 269 266 264 259 254 252 254 258 262 254 243 238
245 247 252 259 256 245 231 237 247 260 268 267 264 258 245 232 240 266 282 284 282 278 275 269 273 286 296 297 293 285 271 259 249 242 238 230 223 221 224 230 233 235 237 247 253 255 254 253 256 261 266 272 276 279 283 286 287 286 284 287 292 297 296 291 286 276 267 270 269 265 261 263 265 267 268 269 268 265 261 260 260 260 260 257 251 244
266 277 287 288 282 274 262 250 241 242 245 251 260 262 264 265 279 289 290 286 284 282 282 277 278 283 288 291 289 285 276 268 258 250 245 238 229 223 224 226 228 230 228 237 248 257 261 258 257 258 261 264 268 272 276 281 283 284 282 282 282 281 280 287 293 294 289 284 279 272 264 263 265 267 270 269 267 264 259 256 254 254 254 252 250 248
287 298 302 295 290 287 282 265 253 247 246 255 263 271 280 281 284 287 286 281 279 278 271 273 285 292 290 291 293 295 291 286 277 266 259 255 250 245 234 227 225 226 225 229 237 246 256 260 262 262 260 259 261 264 269 275 279 281 281 280 278 276 273 279 285 287 287 285 281 275 265 264 269 274 277 274 269 264 257 253 252 251 249 246 245 245
287 289 287 284 282 277 269 263 260 259 261 262 266 270 276 271 267 265 268 268 271 271 267 264 271 281 288 294 300 304 303 297 289 278 269 265 260 253 243 234 229 227 225 229 232 237 243 252 259 265 267 264 262 261 262 268 273 277 279 279 279 279 278 278 278 278 279 281 280 277 272 269 271 274 277 277 276 272 265 258 255 252 249 245 242 241
274 274 273 271 268 267 266 266 266 264 263 262 264 268 271 267 262 257 257 256 259 264 269 267 271 279 287 295 299 301 299 297 293 286 276 269 264 258 251 245 239 234 232 233 234 236 239 243 247 253 260 265 267 267 264 264 266 269 273 276 277 277 277 276 274 272 270 272 273 275 276 276 276 275 276 279 280 279 275 269 263 257 252 249 246 244
269 271 269 271 271 272 275 278 277 274 269 269 269 268 266 265 266 266 263 257 264 276 287 288 285 285 285 285 284 285 286 288 290 290 286 279 272 264 256 251 246 242 240 240 241 242 241 239 237 238 242 251 261 267 268 265 263 263 267 270 272 273 273 273 272 270 267 266 265 265 267 269 272 276 281 284 283 282 280 275 269 262 255 253 252 251
275 282 289 295 296 293 290 292 292 290 284 283 280 273 265 271 280 286 288 285 283 282 283 281 280 279 277 276 276 278 282 285 286 287 284 278 275 273 268 259 253 251 251 248 247 246 246 242 236 231 229 234 245 256 264 263 262 261 262 263 264 266 268 270 270 269 266 265 262 259 255 256 261 267 276 281 282 283 283 280 275 268 260 255 253 252
284 290 300 303 301 297 295 295 294 291 287 284 283 280 275 275 280 284 282 275 269 265 261 264 267 271 274 275 277 278 280 280 280 278 275 273 273 274 273 269 267 267 269 263 257 254 255 251 241 232 226 226 231 240 253 258 260 260 259 257 257 259 263 267 268 267 265 265 263 260 257 258 260 262 266 273 277 281 283 282 279 274 267 260 254 251
289 292 295 293 288 285 284 283 282 280 278 278 279 279 277 273 267 261 254 252 251 251 252 256 260 266 270 273 275 275 274 275 275 275 273 274 275 276 276 274 274 276 279 278 276 273 272 273 267 252 235 228 225 227 238 246 253 257 258 255 253 253 258 262 265 265 264 264 262 261 259 260 259 259 258 265 273 278 281 281 280 278 275 269 261 257